VKG590 ENCN-LEPA

Flight info

Callsign VKG590
Flight time N/A
Altitude 36000
Route RASVI DCT RERPA DCT IPSUB P174 MOXCI DCT MEBIX DCT NVO DCT LIMGO/N0433F370 N852 SUTAL DCT GTQ DCT POGOL DCT LASAT DCT MOROK DCT GILIR DCT GEVEA DCT INCUS DCT BALSI DCT RETNO DCT TUPOX DCT MTG DCT DIVKO DCT VATIR DCT PIVUS DCT BODEQ DCT VERSO L129 LUNIK
Aircraft A21N/M-SDE2E3FGHIJ1J3J4J5P2RWXYZ/LB2D1G1

Departure

Time 2026-04-25 16:54
Airport Kristiansand Airport (ENCN)

Arrival

Time N/A
Airport Palma de Mallorca Airport (LEPA)
Time Latitude Longitude Altitude Speed Heading
2026-04-25 16:24 58.20310 8.07638 59 ft 0 kts 302°
2026-04-25 16:46 58.20310 8.07637 64 ft 0 kts 302°
2026-04-25 16:46 58.20311 8.07636 64 ft 0 kts 302°
2026-04-25 16:47 58.20311 8.07635 64 ft 0 kts 302°
2026-04-25 16:50 58.20314 8.07627 58 ft 2 kts 302°
2026-04-25 16:50 58.20313 8.07598 64 ft 3 kts 239°
2026-04-25 16:51 58.20288 8.07600 62 ft 5 kts 146°
2026-04-25 16:51 58.20255 8.07638 59 ft 6 kts 160°
2026-04-25 16:51 58.20206 8.07626 62 ft 8 kts 209°
2026-04-25 16:51 58.20173 8.07585 56 ft 9 kts 215°
2026-04-25 16:52 58.20093 8.07485 60 ft 11 kts 212°
2026-04-25 16:52 58.20022 8.07402 57 ft 13 kts 211°
2026-04-25 16:52 58.19943 8.07356 64 ft 13 kts 169°
2026-04-25 16:52 58.19855 8.07409 59 ft 14 kts 162°
2026-04-25 16:53 58.19706 8.07540 63 ft 10 kts 99°
2026-04-25 16:53 58.19736 8.07630 62 ft 3 kts 34°
2026-04-25 16:53 58.19737 8.07631 63 ft 0 kts 34°
2026-04-25 16:54 58.19805 8.07719 62 ft 44 kts 34°
2026-04-25 16:54 58.20275 8.08340 61 ft 117 kts 34°
2026-04-25 16:54 58.21063 8.09401 272 ft 147 kts 32°
2026-04-25 16:54 58.21893 8.10526 906 ft 148 kts 29°
2026-04-25 16:55 58.22758 8.11640 1600 ft 151 kts 29°
2026-04-25 16:55 58.23664 8.12832 2164 ft 168 kts 30°
2026-04-25 16:55 58.24664 8.14168 2699 ft 183 kts 31°
2026-04-25 16:55 58.25749 8.15608 3266 ft 199 kts 31°
2026-04-25 16:56 58.26941 8.17195 3809 ft 216 kts 31°
2026-04-25 16:56 58.28170 8.18915 4644 ft 223 kts 37°
2026-04-25 16:56 58.29118 8.21299 5517 ft 233 kts 62°
2026-04-25 16:56 58.29389 8.24398 6392 ft 247 kts 90°
2026-04-25 16:57 58.28820 8.27549 7211 ft 261 kts 116°
2026-04-25 16:57 58.28135 8.29446 7750 ft 265 kts 122°
2026-04-25 16:57 58.26433 8.32980 8647 ft 285 kts 141°
2026-04-25 16:57 58.24571 8.34538 9149 ft 303 kts 172°
2026-04-25 16:58 58.22464 8.34399 9930 ft 306 kts 191°
2026-04-25 16:58 58.20324 8.33621 10431 ft 322 kts 194°
2026-04-25 16:58 58.18055 8.32758 10772 ft 343 kts 193°
2026-04-25 16:58 58.15646 8.31903 11166 ft 360 kts 193°
2026-04-25 16:59 58.13143 8.31069 11803 ft 369 kts 193°
2026-04-25 16:59 58.10589 8.30244 12486 ft 376 kts 194°
2026-04-25 16:59 58.07976 8.29411 13150 ft 385 kts 194°
2026-04-25 16:59 58.05343 8.28577 13784 ft 393 kts 195°
2026-04-25 17:00 58.02589 8.27695 14362 ft 400 kts 195°
2026-04-25 17:00 57.99818 8.26806 14955 ft 407 kts 195°
2026-04-25 17:00 57.97002 8.25917 15543 ft 414 kts 195°
2026-04-25 17:00 57.94177 8.25037 16124 ft 420 kts 196°
2026-04-25 17:01 57.91234 8.24115 16676 ft 426 kts 197°
2026-04-25 17:01 57.88329 8.23203 17259 ft 432 kts 197°
2026-04-25 17:01 57.85345 8.22267 17852 ft 438 kts 197°
2026-04-25 17:01 57.82316 8.21337 18411 ft 444 kts 197°
2026-04-25 17:02 57.79251 8.20407 18909 ft 449 kts 197°
2026-04-25 17:02 57.76148 8.19449 19419 ft 454 kts 197°
2026-04-25 17:02 57.73018 8.18486 19925 ft 458 kts 197°
2026-04-25 17:02 57.69854 8.17511 20421 ft 463 kts 197°
2026-04-25 17:03 57.66664 8.16527 20909 ft 467 kts 197°
2026-04-25 17:03 57.63443 8.15536 21418 ft 470 kts 197°
2026-04-25 17:03 57.60212 8.14543 21951 ft 473 kts 197°
2026-04-25 17:03 57.56950 8.13540 22448 ft 477 kts 197°
2026-04-25 17:04 57.53661 8.12529 22927 ft 481 kts 197°
2026-04-25 17:04 57.50347 8.11512 23404 ft 485 kts 197°
2026-04-25 17:04 57.46998 8.10489 23825 ft 489 kts 197°
2026-04-25 17:04 57.43630 8.09462 24247 ft 492 kts 197°
2026-04-25 17:05 57.40240 8.08433 24667 ft 495 kts 197°
2026-04-25 17:05 57.33446 8.06372 25616 ft 495 kts 197°
2026-04-25 17:05 57.30033 8.05397 26033 ft 500 kts 193°
2026-04-25 17:06 57.26512 8.05295 26408 ft 512 kts 180°
2026-04-25 17:06 57.22949 8.05911 26806 ft 516 kts 178°
2026-04-25 17:06 57.19372 8.06595 27181 ft 518 kts 178°
2026-04-25 17:06 57.15773 8.07261 27554 ft 521 kts 179°
2026-04-25 17:07 57.12156 8.07905 27892 ft 523 kts 179°
2026-04-25 17:07 57.08534 8.08535 28306 ft 522 kts 179°
2026-04-25 17:07 57.04914 8.09146 28730 ft 523 kts 179°
2026-04-25 17:07 57.01289 8.09754 29072 ft 525 kts 179°
2026-04-25 17:08 56.97645 8.10366 29405 ft 527 kts 179°
2026-04-25 17:08 56.93988 8.10990 29731 ft 529 kts 179°
2026-04-25 17:08 56.90313 8.11621 30048 ft 532 kts 179°
2026-04-25 17:08 56.86616 8.12242 30338 ft 534 kts 179°
2026-04-25 17:09 56.82969 8.12859 30584 ft 534 kts 179°
2026-04-25 17:09 56.79273 8.13486 30965 ft 533 kts 179°
2026-04-25 17:09 56.75576 8.14110 31246 ft 534 kts 179°
2026-04-25 17:09 56.71869 8.14741 31496 ft 536 kts 179°
2026-04-25 17:10 56.68154 8.15370 31805 ft 536 kts 179°
2026-04-25 17:10 56.64438 8.15994 32149 ft 536 kts 180°
2026-04-25 17:10 56.60717 8.16617 32335 ft 539 kts 180°
2026-04-25 17:10 56.56979 8.17237 32557 ft 540 kts 180°
2026-04-25 17:11 56.53251 8.17861 32982 ft 536 kts 180°
2026-04-25 17:11 56.49542 8.18469 33334 ft 534 kts 181°
2026-04-25 17:11 56.45861 8.18507 33596 ft 525 kts 191°
2026-04-25 17:11 56.42227 8.17941 33864 ft 523 kts 192°
2026-04-25 17:12 56.38603 8.17310 34104 ft 523 kts 192°
2026-04-25 17:12 56.34989 8.16686 34330 ft 522 kts 192°
2026-04-25 17:12 56.31367 8.16074 34558 ft 522 kts 192°
2026-04-25 17:12 56.27758 8.15485 34784 ft 519 kts 191°
2026-04-25 17:13 56.24172 8.14919 35102 ft 516 kts 191°
2026-04-25 17:13 56.23014 8.14739 35186 ft 515 kts 191°
2026-04-25 17:13 56.17039 8.13771 35513 ft 514 kts 191°
2026-04-25 17:13 56.13481 8.13187 35703 ft 513 kts 191°
2026-04-25 17:14 56.09920 8.12610 35882 ft 513 kts 191°
2026-04-25 17:14 56.06367 8.12033 36041 ft 513 kts 191°
2026-04-25 17:14 55.99318 8.10904 36071 ft 510 kts 191°
2026-04-25 17:15 55.92263 8.09761 36058 ft 509 kts 191°
2026-04-25 17:15 55.85205 8.08653 36056 ft 509 kts 191°
2026-04-25 17:16 55.78152 8.07567 36065 ft 509 kts 191°
2026-04-25 17:16 55.71099 8.06451 36068 ft 509 kts 191°
2026-04-25 17:17 55.64051 8.05311 36071 ft 509 kts 191°
2026-04-25 17:17 55.56996 8.04200 36076 ft 509 kts 191°
2026-04-25 17:18 55.49946 8.03109 36036 ft 508 kts 190°
2026-04-25 17:18 55.42930 8.02037 36061 ft 505 kts 190°
2026-04-25 17:19 55.35942 8.00909 36073 ft 504 kts 191°
2026-04-25 17:19 55.28953 7.99781 36087 ft 505 kts 190°
2026-04-25 17:20 55.21968 7.98704 36059 ft 501 kts 190°
2026-04-25 17:20 55.15076 7.97643 36085 ft 500 kts 190°
2026-04-25 17:21 55.08135 7.96578 36090 ft 501 kts 190°
2026-04-25 17:21 55.01195 7.95505 36088 ft 500 kts 191°
2026-04-25 17:22 54.96627 7.94253 36076 ft 493 kts 196°
2026-04-25 17:22 54.87698 7.91238 36096 ft 491 kts 197°
2026-04-25 17:23 54.80986 7.88995 36108 ft 491 kts 197°
2026-04-25 17:23 54.74275 7.86764 36079 ft 491 kts 196°
2026-04-25 17:24 54.67621 7.84568 36109 ft 485 kts 196°
2026-04-25 17:24 54.62116 7.82737 36118 ft 485 kts 196°
2026-04-25 17:25 54.55496 7.80546 36127 ft 485 kts 196°
2026-04-25 17:25 54.48868 7.78364 36113 ft 484 kts 196°
2026-04-25 17:26 54.42284 7.76239 36128 ft 481 kts 195°
2026-04-25 17:26 54.35710 7.74124 36135 ft 480 kts 196°
2026-04-25 17:27 54.29145 7.71983 36140 ft 480 kts 196°
2026-04-25 17:27 54.23683 7.70211 36114 ft 479 kts 195°
2026-04-25 17:28 54.16125 7.67770 36146 ft 475 kts 196°
2026-04-25 17:28 54.09630 7.65673 36152 ft 475 kts 195°
2026-04-25 17:29 54.03129 7.63583 36151 ft 475 kts 196°
2026-04-25 17:29 53.96642 7.61503 36145 ft 473 kts 195°
2026-04-25 17:30 53.90185 7.59381 36163 ft 472 kts 196°
2026-04-25 17:30 53.83755 7.57127 36162 ft 472 kts 197°
2026-04-25 17:31 53.77325 7.54860 36171 ft 472 kts 196°
2026-04-25 17:31 53.70908 7.52615 36165 ft 470 kts 196°
2026-04-25 17:32 53.64508 7.50362 36170 ft 470 kts 196°
2026-04-25 17:32 53.58107 7.48131 36171 ft 470 kts 196°
2026-04-25 17:33 53.51698 7.45920 36171 ft 470 kts 196°
2026-04-25 17:33 53.45316 7.43717 36177 ft 467 kts 196°
2026-04-25 17:34 53.38950 7.41523 36198 ft 467 kts 195°
2026-04-25 17:34 53.32617 7.39357 36199 ft 467 kts 196°
2026-04-25 17:35 53.26258 7.37151 36196 ft 467 kts 195°
2026-04-25 17:35 53.19884 7.34967 36191 ft 467 kts 195°
2026-04-25 17:36 53.13515 7.32778 36185 ft 467 kts 195°
2026-04-25 17:36 53.07142 7.30611 36180 ft 467 kts 195°
2026-04-25 17:37 53.00768 7.28461 36158 ft 466 kts 195°
2026-04-25 17:37 52.94448 7.26362 36173 ft 462 kts 195°
2026-04-25 17:38 52.89203 7.24602 36174 ft 463 kts 196°
2026-04-25 17:38 52.81831 7.22135 36171 ft 462 kts 195°
2026-04-25 17:39 52.75520 7.20028 36158 ft 462 kts 196°
2026-04-25 17:39 52.69223 7.17938 36174 ft 462 kts 196°
2026-04-25 17:40 52.62913 7.15916 36169 ft 462 kts 195°
2026-04-25 17:40 52.56589 7.13984 36167 ft 462 kts 195°
2026-04-25 17:41 52.50312 7.12098 36157 ft 461 kts 195°
2026-04-25 17:41 52.43964 7.10214 36157 ft 461 kts 195°
2026-04-25 17:42 52.37693 7.08345 36154 ft 461 kts 195°
2026-04-25 17:42 52.31390 7.06456 36153 ft 461 kts 195°
2026-04-25 17:43 52.25095 7.04593 36151 ft 459 kts 195°
2026-04-25 17:43 52.18816 7.02743 36156 ft 459 kts 195°
2026-04-25 17:44 52.12539 7.00898 36158 ft 458 kts 195°
2026-04-25 17:44 52.06256 6.99052 36152 ft 458 kts 194°
2026-04-25 17:45 52.01056 6.97528 36155 ft 457 kts 194°
2026-04-25 17:45 51.93743 6.95387 36156 ft 457 kts 194°
2026-04-25 17:46 51.87483 6.93570 36164 ft 457 kts 194°
2026-04-25 17:46 51.81230 6.91746 36150 ft 456 kts 194°
2026-04-25 17:47 51.74990 6.89938 36161 ft 455 kts 194°
2026-04-25 17:47 51.68803 6.88151 36166 ft 455 kts 194°
2026-04-25 17:48 51.59444 6.85457 36158 ft 455 kts 194°
2026-04-25 17:49 51.53230 6.83683 36164 ft 454 kts 194°
2026-04-25 17:49 51.47010 6.81901 36167 ft 454 kts 194°
2026-04-25 17:50 51.40793 6.80130 36170 ft 454 kts 194°
2026-04-25 17:50 51.34583 6.78353 36161 ft 452 kts 194°
2026-04-25 17:51 51.28390 6.76601 36171 ft 452 kts 194°
2026-04-25 17:51 51.22200 6.74855 36172 ft 452 kts 194°
2026-04-25 17:52 51.16000 6.73126 36171 ft 452 kts 194°
2026-04-25 17:52 51.09813 6.71392 36167 ft 451 kts 194°
2026-04-25 17:53 51.03621 6.69672 36172 ft 451 kts 194°
2026-04-25 17:53 50.97435 6.67945 36172 ft 451 kts 194°
2026-04-25 17:54 50.91251 6.66226 36170 ft 452 kts 194°
2026-04-25 17:54 50.85073 6.64504 36170 ft 451 kts 194°
2026-04-25 17:55 50.78948 6.62675 36172 ft 451 kts 195°
2026-04-25 17:55 50.72795 6.60773 36171 ft 451 kts 195°
2026-04-25 17:56 50.66644 6.58888 36163 ft 450 kts 195°
2026-04-25 17:56 50.60504 6.57019 36165 ft 449 kts 195°
2026-04-25 17:57 50.54372 6.55165 36161 ft 449 kts 195°
2026-04-25 17:57 50.48239 6.53298 36153 ft 449 kts 195°
2026-04-25 17:58 50.42110 6.51441 36147 ft 448 kts 195°
2026-04-25 17:58 50.35993 6.49614 36143 ft 448 kts 195°